ONEWEB-0698

operational
NORAD ID: 61604 Int'l Des: 2024-188 Owner: ONEWEBE Country: UK Constellation: oneweb
LEOCIRCULARPOLARONEWEB_TYPE

关于 ONEWEB-0698

正在加载描述...

实时位置

正在加载3D地球...

即将过境

高度历史

Altitude vs Time

uPlot chart will show altitude changes over time

两行轨道根数

1 61604U 24188L 25251.51497309 .00000421 00000-0 11527-2 0 9998
2 61604 87.8769 77.2135 0000605 78.4250 281.6946 13.11415991 47558
Epoch: Sep 8, 2025 • Age: 15 hours

当前状态

高度 1225.1 km
速度 7.25 km/s
星下点 49.32°N, 42.24°E
发射日期 Oct 20, 2024
运行时间 0.8 years
类型 internet

技术详情

分类 Payload
质量 148.00 kg
干质量 140.00 kg
总质量 148.00 kg
长度 1.30 m
直径 1.00 m
跨度 5.00 m
形状 Trapezoid+2 pan
制造商 ONEWUS
平台类型 ARROW
阶段状态 In Orbit
所有者/国家 ONEWEBE/UK

大型星座

Loading constellations...